Meteo orario Abbeville

Oggi, 6 Marzo, Sabato

Tempo Temperatura Precipitazioni Vento Pressione Umidità
00:00 -2°C° 0 mm 4 m/s 772 mm Hg 79%
01:00 -2°C° 0 mm 4 m/s 771 mm Hg 76%
02:00 -2°C° 0 mm 4 m/s 771 mm Hg 73%
03:00 -2°C° 0 mm 3 m/s 771 mm Hg 70%
04:00 -2°C° 0 mm 3 m/s 771 mm Hg 70%
05:00 -2°C° 0 mm 3 m/s 771 mm Hg 70%
06:00 -3°C° 0 mm 4 m/s 772 mm Hg 68%
07:00 -1°C° 0 mm 4 m/s 772 mm Hg 65%
08:00 0°C° 0 mm 4 m/s 772 mm Hg 62%
09:00 +1°C° 0 mm 5 m/s 772 mm Hg 58%
10:00 +3°C° 0 mm 5 m/s 772 mm Hg 55%
11:00 +5°C° 0 mm 5 m/s 771 mm Hg 52%
12:00 +6°C° 0 mm 5 m/s 771 mm Hg 49%
13:00 +6°C° 0 mm 5 m/s 771 mm Hg 50%
14:00 +6°C° 0 mm 5 m/s 770 mm Hg 50%
15:00 +7°C° 0 mm 5 m/s 770 mm Hg 51%
16:00 +5°C° 0 mm 5 m/s 769 mm Hg 57%
17:00 +3°C° 0 mm 4 m/s 769 mm Hg 63%
18:00 +2°C° 0 mm 3 m/s 769 mm Hg 69%
19:00 +1°C° 0 mm 3 m/s 769 mm Hg 71%
20:00 0°C° 0 mm 3 m/s 769 mm Hg 74%
21:00 -1°C° 0 mm 3 m/s 769 mm Hg 76%
22:00 -1°C° 0 mm 3 m/s 769 mm Hg 77%
23:00 -1°C° 0 mm 3 m/s 769 mm Hg 79%

Domani, 7 Marzo, Domenica

Tempo Temperatura Precipitazioni Vento Pressione Umidità
00:00 -1°C° 0 mm 3 m/s 769 mm Hg 80%
01:00 -1°C° 0 mm 3 m/s 768 mm Hg 80%
02:00 -1°C° 0 mm 3 m/s 768 mm Hg 80%
03:00 -2°C° 0 mm 2 m/s 768 mm Hg 80%
04:00 -2°C° 0 mm 2 m/s 768 mm Hg 80%
05:00 -2°C° 0 mm 2 m/s 768 mm Hg 80%
06:00 -2°C° 0 mm 2 m/s 768 mm Hg 80%
07:00 +1°C° 0 mm 2 m/s 767 mm Hg 74%
08:00 +2°C° 0 mm 2 m/s 767 mm Hg 67%
09:00 +3°C° 0 mm 3 m/s 767 mm Hg 61%
10:00 +4°C° 0 mm 3 m/s 767 mm Hg 57%
11:00 +5°C° 0 mm 3 m/s 767 mm Hg 53%
12:00 +7°C° 0 mm 3 m/s 767 mm Hg 49%
13:00 +7°C° 0 mm 3 m/s 766 mm Hg 51%
14:00 +7°C° 0 mm 3 m/s 766 mm Hg 52%
15:00 +7°C° 0 mm 3 m/s 765 mm Hg 53%
16:00 +5°C° 0 mm 3 m/s 765 mm Hg 62%
17:00 +3°C° 0 mm 3 m/s 765 mm Hg 71%
18:00 +1°C° 0 mm 3 m/s 765 mm Hg 80%
19:00 +1°C° 0 mm 3 m/s 765 mm Hg 81%
20:00 +1°C° 0 mm 2 m/s 765 mm Hg 83%
21:00 -1°C° 0 mm 2 m/s 765 mm Hg 85%
22:00 -1°C° 0 mm 2 m/s 765 mm Hg 85%
23:00 0°C° 0 mm 1 m/s 765 mm Hg 85%

Dopodomani, 8 Marzo, Lunedi

Tempo Temperatura Precipitazioni Vento Pressione Umidità
00:00 0°C° 0 mm 1 m/s 765 mm Hg 84%
01:00 0°C° 0 mm 1 m/s 765 mm Hg 84%
02:00 0°C° 0 mm 1 m/s 765 mm Hg 84%
03:00 -1°C° 0 mm 0 m/s 765 mm Hg 84%
04:00 -1°C° 0 mm 0 m/s 765 mm Hg 83%
05:00 -1°C° 0 mm 0 m/s 765 mm Hg 82%
06:00 -1°C° 0 mm 0 m/s 765 mm Hg 81%
07:00 +1°C° 0 mm 0 m/s 765 mm Hg 76%
08:00 +3°C° 0 mm 1 m/s 765 mm Hg 70%
09:00 +5°C° 0 mm 1 m/s 765 mm Hg 65%
10:00 +6°C° 0 mm 1 m/s 765 mm Hg 63%
11:00 +7°C° 0 mm 1 m/s 765 mm Hg 62%
12:00 +8°C° 0 mm 1 m/s 765 mm Hg 61%
13:00 +8°C° 0 mm 1 m/s 765 mm Hg 62%
14:00 +8°C° 0 mm 1 m/s 764 mm Hg 63%
15:00 +7°C° 0 mm 2 m/s 764 mm Hg 64%
16:00 +6°C° 0 mm 2 m/s 764 mm Hg 71%
17:00 +6°C° 0 mm 1 m/s 764 mm Hg 78%
18:00 +4°C° 0 mm 1 m/s 764 mm Hg 85%
19:00 +4°C° 0 mm 1 m/s 764 mm Hg 86%
20:00 +4°C° 0 mm 1 m/s 764 mm Hg 86%
21:00 +2°C° 0 mm 0 m/s 764 mm Hg 87%
22:00 +3°C° 0 mm 0 m/s 764 mm Hg 87%
23:00 +3°C° 0 mm 0 m/s 764 mm Hg 87%

9 Marzo, Martedi

Tempo Temperatura Precipitazioni Vento Pressione Umidità
00:00 +3°C° 0 mm 0 m/s 764 mm Hg 87%
01:00 +4°C° 0 mm 1 m/s 764 mm Hg 88%
02:00 +4°C° 0 mm 1 m/s 764 mm Hg 88%
03:00 +3°C° 0 mm 2 m/s 763 mm Hg 88%
04:00 +4°C° 0 mm 1 m/s 763 mm Hg 89%
05:00 +4°C° 0 mm 1 m/s 764 mm Hg 89%
06:00 +4°C° 0 mm 1 m/s 764 mm Hg 90%
07:00 +4°C° 0 mm 2 m/s 764 mm Hg 86%
08:00 +5°C° 0 mm 2 m/s 764 mm Hg 82%
09:00 +6°C° 0 mm 2 m/s 764 mm Hg 78%
10:00 +7°C° 0 mm 2 m/s 764 mm Hg 76%
11:00 +7°C° 0 mm 2 m/s 764 mm Hg 73%
12:00 +8°C° 0 mm 2 m/s 764 mm Hg 71%
13:00 +8°C° 0 mm 2 m/s 764 mm Hg 69%
14:00 +9°C° 0 mm 2 m/s 764 mm Hg 68%
15:00 +9°C° 0 mm 2 m/s 764 mm Hg 66%
16:00 +8°C° 0 mm 2 m/s 763 mm Hg 72%
17:00 +7°C° 0 mm 2 m/s 763 mm Hg 78%
18:00 +6°C° 0 mm 2 m/s 763 mm Hg 83%
19:00 +5°C° 0 mm 2 m/s 763 mm Hg 85%
20:00 +5°C° 0 mm 2 m/s 764 mm Hg 86%
21:00 +3°C° 0 mm 3 m/s 764 mm Hg 87%
22:00 +3°C° 0 mm 3 m/s 763 mm Hg 86%
23:00 +3°C° 0 mm 4 m/s 763 mm Hg 84%

10 Marzo, Mercoledi

Tempo Temperatura Precipitazioni Vento Pressione Umidità
00:00 +3°C° 0 mm 4 m/s 763 mm Hg 83%
01:00 +3°C° 0 mm 4 m/s 762 mm Hg 82%
02:00 +2°C° 0 mm 5 m/s 762 mm Hg 82%
03:00 +2°C° 0 mm 5 m/s 762 mm Hg 81%
04:00 +2°C° 0 mm 6 m/s 761 mm Hg 81%
05:00 +2°C° 0 mm 6 m/s 761 mm Hg 80%
06:00 +2°C° 0 mm 6 m/s 761 mm Hg 80%
07:00 +3°C° 0 mm 7 m/s 760 mm Hg 76%
08:00 +4°C° 0 mm 8 m/s 760 mm Hg 73%
09:00 +4°C° 0 mm 8 m/s 760 mm Hg 69%
10:00 +4°C° 0.1 mm 8 m/s 759 mm Hg 71%
11:00 +4°C° 0.1 mm 8 m/s 759 mm Hg 72%
12:00 +5°C° 0.1 mm 8 m/s 759 mm Hg 74%
13:00 +5°C° 0.6 mm 8 m/s 758 mm Hg 78%
14:00 +5°C° 0.6 mm 9 m/s 757 mm Hg 82%
15:00 +5°C° 0.6 mm 9 m/s 757 mm Hg 87%
16:00 +5°C° 0.9 mm 9 m/s 756 mm Hg 88%
17:00 +5°C° 0.9 mm 10 m/s 755 mm Hg 89%
18:00 +6°C° 0.9 mm 10 m/s 755 mm Hg 90%
19:00 +6°C° 0.7 mm 10 m/s 754 mm Hg 89%
20:00 +7°C° 0.7 mm 10 m/s 754 mm Hg 89%
21:00 +7°C° 0.7 mm 11 m/s 753 mm Hg 89%
22:00 +8°C° 0 mm 10 m/s 753 mm Hg 89%
23:00 +8°C° 0 mm 10 m/s 752 mm Hg 88%

11 Marzo, Giovedi

Tempo Temperatura Precipitazioni Vento Pressione Umidità
00:00 +9°C° 0 mm 10 m/s 752 mm Hg 88%
01:00 +9°C° 0 mm 10 m/s 751 mm Hg 86%
02:00 +9°C° 0 mm 11 m/s 750 mm Hg 84%
03:00 +10°C° 0 mm 12 m/s 749 mm Hg 83%
04:00 +9°C° 0.8 mm 12 m/s 748 mm Hg 82%
05:00 +9°C° 0.8 mm 12 m/s 748 mm Hg 82%
06:00 +9°C° 0.8 mm 13 m/s 748 mm Hg 82%
07:00 +8°C° 0.1 mm 13 m/s 748 mm Hg 78%
08:00 +8°C° 0.1 mm 14 m/s 748 mm Hg 74%
09:00 +8°C° 0.1 mm 15 m/s 749 mm Hg 71%
10:00 +8°C° 0.1 mm 15 m/s 749 mm Hg 69%
11:00 +7°C° 0.1 mm 16 m/s 749 mm Hg 67%
12:00 +7°C° 0.1 mm 16 m/s 750 mm Hg 65%
13:00 +8°C° 0.1 mm 15 m/s 750 mm Hg 64%
14:00 +8°C° 0.1 mm 15 m/s 750 mm Hg 64%
15:00 +8°C° 0.1 mm 14 m/s 751 mm Hg 64%
16:00 +7°C° 0 mm 13 m/s 751 mm Hg 66%
17:00 +6°C° 0 mm 11 m/s 752 mm Hg 69%
18:00 +6°C° 0 mm 9 m/s 752 mm Hg 72%
19:00 +5°C° 0.1 mm 9 m/s 753 mm Hg 73%
20:00 +5°C° 0.1 mm 9 m/s 753 mm Hg 75%
21:00 +5°C° 0.1 mm 9 m/s 753 mm Hg 77%
22:00 +5°C° 0.1 mm 8 m/s 753 mm Hg 79%
23:00 +4°C° 0.1 mm 8 m/s 753 mm Hg 81%
Mostrare altro

Abbiamo bisogno del tuo consenso

Meteoprog e i nostri fornitori di servizi possono memorizzare e accedere a dati personali come cookie, identificatori di dispositivi o altre tecnologie simili sul tuo dispositivo e possono elaborare tali dati per personalizzare i contenuti e gli annunci, nonché fornire funzionalità dei social media e analizzarne il traffico.

  • Archiviare e/o accedere alle informazioni sul tuo dispositivo

    Cookie, identificatori di dispositivi o altre informazioni possono essere memorizzati o resi accessibili sul tuo dispositivo per le finalità sopra indicate.

  • Annunci e contenuti personalizzati, misurazione di annunci e contenuti, approfondimenti sul pubblico e sviluppo di prodotti

    Gli annunci e i contenuti possono essere personalizzati in base a un profilo. È possibile aggiungere più dati per personalizzare meglio annunci e contenuti. È possibile misurare il rendimento degli annunci e dei contenuti. È possibile ricavare informazioni sul pubblico che ha visto gli annunci e i contenuti. Tali dati possono essere utilizzati per sviluppare o migliorare l'esperienza, i sistemi e il software dell'utente.

Cliccando su “Accetto”, acconsenti all'uso di cookie, identificatori di dispositivo, web beacon o altre tecnologie simili. Puoi modificare le impostazioni nel browser del tuo dispositivo.

Per determinati scopi, è possibile fare affidamento su interessi legali, piuttosto che sul consenso. Puoi approfondire questo argomento consultando la nostra Informativa sulla privacy e sui cookie.